Location: Kuppenheim
(48.8299°N, 8.2568°E)
Time: 14:42:13
(UTC+00:00)

MINOTAUR 4 R/B - Pass Details

Date: 20 June 2021
Orbit: 475 x 481 km, 98.0° (Epoch: 04 August)

Event Time Altitude Azimuth Distance (km) Brightness Sun altitude
Exits shadow 01:26:34 11° 158° (SSE) 1,556 6.2 -13.1°
Maximum altitude 01:29:52 74° 75° (ENE) 501 4.2 -12.8°
Drops below altitude 10° 01:33:25 10° 350° (N) 1,657 7.5 -12.5°
Sets 01:35:30 0° 348° (NNW) 2,541 8.5 -12.4°
